Home   Weather   Bregenz   Past weeks
Flag for Austria

Past Weather in Bregenz, Vorarlberg, Austria — Yesterday and Last 2 Weeks

Now
68 °F

Mild.


Feels Like: 68 °F
Forecast: 79 / 54 °F
Wind: 2 mph from East

Location: Bregenz

Current Time: Jul 16, 2019 at 11:09:57 pm

Latest Report: Jul 16, 2019 at 9:00 pm


Visibility: N/A

Pressure: 29.96 "Hg

Humidity: 49%

Dew Point: 48 °F

Location of BregenzLocation

Past Weather in Bregenz — Graph

°F

Bregenz Temperature Yesterday

Maximum temperature yesterday: 76 °F (at 6:00 pm)
Minimum temperature yesterday: 58 °F (at 6:00 am)
Average temperature yesterday: 67 °F

High & Low Weather Summary for the Past Weeks

 TemperatureHumidityPressure
High87 °F (Jul 5, 7:00 pm)96% (Jul 13, 1:00 am)30.13 "Hg (Jul 13, 1:00 am)
Low57 °F (Jul 16, 7:00 am)18% (Jul 5, 7:00 pm)29.82 "Hg (Jul 7, 4:00 pm)
Average68 °F67%29.98 "Hg
* Reported Jul 1 9:00 pm — Jul 16 9:00 pm, Bregenz. Weather by CustomWeather, © 2019

Note: Actual official high and low records may vary slightly from our data, if they occured in-between our weather recording intervals... More about our weather records

Advertising

Bregenz Weather History for the Previous 24 Hours

Scroll right to see more
 ConditionsComfort  
Time TempWeatherWind HumidityBarometerVisibility
9:00 pm
Tue, Jul 16
68 °FMild.2 mph49%29.96 "HgN/A
8:00 pm76 °FMild.1 mph36%29.93 "HgN/A
7:00 pm79 °FPleasantly warm.1 mph26%29.93 "HgN/A
6:00 pm76 °FMild.2 mph33%29.94 "HgN/A
5:00 pm75 °FMild.2 mph37%29.96 "HgN/A
4:00 pm75 °FMild.2 mph41%29.96 "HgN/A
2:00 pm71 °FPassing clouds.2 mph60%29.99 "Hg19 mi
12:00 pm67 °FMild.2 mph67%30.01 "HgN/A
11:00 am66 °FPassing clouds.3 mph70%30.02 "Hg19 mi
10:00 am66 °FMild.2 mph72%30.03 "HgN/A
9:00 am64 °FMild.1 mph69%30.03 "HgN/A
7:00 am57 °FSunny.1 mph87%30.05 "Hg16 mi
5:00 am57 °FCool.2 mph89%30.04 "HgN/A
4:00 am57 °FCool.1 mph86%30.04 "HgN/A
2:00 am60 °FCool.1 mph79%30.02 "HgN/A
12:00 am67 °FMild.1 mph58%29.99 "HgN/A
11:00 pm
Mon, Jul 15
68 °FMild.5 mph55%29.98 "HgN/A
Weather by CustomWeather, © 2019

See weather overview

LIVE PARTIAL LUNAR ECLIPSE – Watch the eclipse as it happens